Date String (YYYY-MM-DD hh:mm:ss) UTC,Instrument flags,absolute air pressure of the measurement (hPa),sample flow rate (lpm),inlet stack bypass flow (lpm),air temperature of the measurement (°C),ambient temperature measured by the external sensor (°C),aerosol sample conditioner tube jacket temperature (°C),OPC LED temperature (°C),internal box temperature (°C),relative humidity of the measurement (%),span deviation,mass concentration of particles derived from Lorenz-Mie calculation of OPC scattering (μg/m³),mass concentration of particles derived from Lorenz-Mie calculation of OPC scattering (μg/m³),mass concentration of particles derived from Lorenz-Mie calculation of OPC scattering (μg/m³)
DateTimeUTC,F1_M11,P_M11,Q1_M11,Q2_M11,T1_M11,T2_M11,T3_M11,T4_M11,T5_M11,U1_M11,ZSPAN_M11,X0_M11,X2_M11,X1_M11
2024-04-21 23:00:00,SystemResetWarning,0830.7,5.00,000.00,023.5,022.9,000.0,031.8,025.3,021.7,0000.4,0016.94,0009.84,0009.37
2024-04-21 23:01:00,SystemResetWarning,0830.7,4.98,000.00,023.5,022.9,000.0,031.8,025.3,021.5,0000.2,0017.26,0009.90,0009.41
2024-04-21 23:02:00,SystemResetWarning,0830.6,4.99,000.00,023.5,022.9,000.0,031.9,025.3,021.7,0000.1,0017.38,0009.97,0009.47
2024-04-21 23:03:00,SystemResetWarning,0830.6,5.00,000.00,023.5,022.9,000.0,031.9,025.3,021.7,-000.0,0017.32,0010.06,0009.56
2024-04-21 23:04:00,SystemResetWarning,0830.6,5.01,000.00,023.6,022.9,000.0,031.9,025.3,021.5,-000.0,0016.95,0010.11,0009.63
2024-04-21 23:05:00,SystemResetWarning,0830.6,5.01,000.00,023.6,022.9,000.0,031.9,025.3,022.1,-000.1,0016.73,0010.18,0009.71
2024-04-21 23:06:00,SystemResetWarning,0830.6,5.00,000.00,023.6,023.0,000.0,031.9,025.3,021.9,-000.1,0016.53,0010.26,0009.79
2024-04-21 23:07:00,SystemResetWarning,0830.6,5.00,000.00,023.6,023.0,000.0,031.9,025.4,022.2,-000.0,0016.36,0010.28,0009.81
2024-04-21 23:08:00,SystemResetWarning,0830.6,4.99,000.00,023.6,023.0,000.0,031.9,025.4,022.0,0000.0,0016.32,0010.27,0009.80
2024-04-21 23:09:00,SystemResetWarning,0830.5,5.00,000.00,023.6,023.0,000.0,031.9,025.4,022.0,0000.1,0016.08,0010.30,0009.79
2024-04-21 23:10:00,SystemResetWarning,0830.5,4.99,000.00,023.6,023.0,000.0,031.9,025.4,022.0,0000.5,0015.97,0010.28,0009.78
2024-04-21 23:11:00,SystemResetWarning,0830.5,5.01,000.00,023.7,023.0,000.0,032.0,025.4,022.0,0000.6,0015.93,0010.28,0009.76
2024-04-21 23:12:00,SystemResetWarning,0830.5,5.00,000.00,023.7,023.0,000.0,032.0,025.5,021.7,0000.8,0015.67,0010.24,0009.75
2024-04-21 23:13:00,SystemResetWarning,0830.5,5.00,000.00,023.7,023.1,000.0,032.0,025.5,022.0,0000.8,0015.91,0010.24,0009.72
2024-04-21 23:14:00,SystemResetWarning,0830.4,5.01,000.00,023.7,023.1,000.0,032.0,025.5,022.0,0000.8,0015.87,0010.22,0009.68
2024-04-21 23:15:00,SystemResetWarning,0830.4,5.00,000.00,023.7,023.1,000.0,032.0,025.5,021.6,0000.9,0015.64,0010.21,0009.67
2024-04-21 23:16:00,SystemResetWarning,0830.4,5.00,000.00,023.7,023.1,000.0,032.0,025.5,021.2,0000.8,0015.75,0010.18,0009.62
2024-04-21 23:17:00,SystemResetWarning,0830.6,5.00,000.00,023.7,023.1,000.0,032.0,025.5,021.7,0000.8,0015.15,0010.15,0009.57
2024-04-21 23:18:00,SystemResetWarning,0830.7,4.99,000.00,023.7,023.1,000.0,032.0,025.5,022.4,0000.8,0015.60,0010.13,0009.55
2024-04-21 23:19:00,SystemResetWarning,0830.4,4.99,000.00,023.7,023.1,000.0,032.1,025.5,022.0,0000.9,0015.70,0010.12,0009.53
2024-04-21 23:20:00,SystemResetWarning,0830.4,4.99,000.00,023.8,023.1,000.0,032.1,025.5,021.9,0000.8,0015.71,0010.10,0009.51
2024-04-21 23:21:00,SystemResetWarning,0830.4,5.00,000.00,023.8,023.1,000.0,032.1,025.5,022.4,0000.7,0016.25,0010.04,0009.47
2024-04-21 23:22:00,SystemResetWarning,0830.4,5.00,000.00,023.8,023.2,000.0,032.1,025.5,023.2,0000.6,0016.26,0009.99,0009.43
2024-04-21 23:23:00,SystemResetWarning,0830.4,5.02,000.00,023.8,023.2,000.0,032.1,025.5,022.6,0000.4,0016.22,0009.94,0009.36
2024-04-21 23:24:00,SystemResetWarning,0830.4,5.00,000.00,023.8,023.2,000.0,032.1,025.6,021.3,0000.6,0015.96,0009.89,0009.32
2024-04-21 23:25:00,SystemResetWarning,0830.5,4.99,000.00,023.8,023.2,000.0,032.1,025.6,021.2,0000.7,0015.90,0009.85,0009.31
2024-04-21 23:26:00,SystemResetWarning,0830.4,4.99,000.00,023.8,023.3,000.0,032.1,025.6,021.0,0000.8,0016.44,0009.83,0009.26
2024-04-21 23:27:00,SystemResetWarning,0830.4,5.01,000.00,023.9,023.3,000.0,032.1,025.6,021.3,0001.0,0016.53,0009.80,0009.24
2024-04-21 23:28:00,SystemResetWarning,0830.3,5.01,000.00,023.9,023.3,000.0,032.2,025.6,021.3,0001.0,0016.92,0009.81,0009.22
2024-04-21 23:29:00,SystemResetWarning,0830.3,5.01,000.00,023.9,023.3,000.0,032.2,025.7,021.2,0001.0,0017.00,0009.79,0009.19
2024-04-21 23:30:00,SystemResetWarning,0830.3,5.00,000.00,023.9,023.3,000.0,032.2,025.6,021.3,0000.9,0017.38,0009.77,0009.17
2024-04-21 23:31:00,SystemResetWarning,0830.3,5.00,000.00,023.9,023.3,000.0,032.2,025.7,021.3,0000.7,0017.92,0009.77,0009.17
2024-04-21 23:32:00,SystemResetWarning,0830.3,5.00,000.00,023.9,023.3,000.0,032.2,025.7,021.1,0000.9,0018.11,0009.78,0009.19
2024-04-21 23:33:00,SystemResetWarning,0830.2,5.00,000.00,023.9,023.3,000.0,032.2,025.7,021.4,0001.0,0018.78,0009.79,0009.20
2024-04-21 23:34:00,SystemResetWarning,0830.2,5.00,000.00,023.9,023.3,000.0,032.2,025.7,021.2,0001.0,0019.18,0009.81,0009.22
2024-04-21 23:35:00,SystemResetWarning,0830.2,5.00,000.00,024.0,023.4,000.0,032.3,025.7,021.7,0001.1,0019.13,0009.81,0009.24
2024-04-21 23:36:00,SystemResetWarning,0830.2,5.00,000.00,024.0,023.4,000.0,032.3,025.7,022.2,0001.2,0019.00,0009.80,0009.20
2024-04-21 23:37:00,SystemResetWarning,0830.2,5.00,000.00,024.0,023.4,000.0,032.3,025.7,021.5,0001.0,0018.50,0009.73,0009.12
2024-04-21 23:38:00,SystemResetWarning,0830.2,5.00,000.00,024.0,023.4,000.0,032.3,025.7,021.6,0001.0,0017.85,0009.65,0009.08
2024-04-21 23:39:00,SystemResetWarning,0830.3,5.00,000.00,024.0,023.4,000.0,032.3,025.8,020.9,0001.0,0018.29,0009.56,0009.03
2024-04-21 23:40:00,SystemResetWarning,0830.3,5.00,000.00,024.0,023.4,000.0,032.3,025.8,021.2,0001.1,0017.97,0009.50,0008.98
2024-04-21 23:41:00,SystemResetWarning,0830.3,5.00,000.00,024.0,023.4,000.0,032.3,025.9,021.4,0001.2,0017.77,0009.46,0008.92
2024-04-21 23:42:00,SystemResetWarning,0830.3,5.00,000.00,024.0,023.4,000.0,032.4,025.9,020.9,0001.5,0017.41,0009.40,0008.82
2024-04-21 23:43:00,SystemResetWarning,0830.2,5.01,000.00,024.1,023.4,000.0,032.4,025.9,020.6,0001.4,0016.86,0009.32,0008.71
2024-04-21 23:44:00,SystemResetWarning,0830.2,5.01,000.00,024.1,023.4,000.0,032.4,025.9,020.8,0001.0,0015.86,0009.24,0008.62
2024-04-21 23:45:00,SystemResetWarning,0830.2,5.00,000.00,024.1,023.4,000.0,032.4,025.9,020.6,0001.1,0015.24,0009.18,0008.54
2024-04-21 23:46:00,SystemResetWarning,0830.2,4.99,000.00,024.1,023.5,000.0,032.4,025.9,020.4,0001.0,0015.29,0009.13,0008.48
2024-04-21 23:47:00,SystemResetWarning,0830.1,5.00,000.00,024.1,023.5,000.0,032.4,025.9,020.6,0001.1,0015.28,0009.05,0008.42
2024-04-21 23:48:00,SystemResetWarning,0830.1,4.99,000.00,024.1,023.5,000.0,032.4,025.9,020.6,0001.4,0015.19,0009.03,0008.40
2024-04-21 23:49:00,SystemResetWarning,0830.1,5.00,000.00,024.1,023.5,000.0,032.4,025.9,020.9,0001.3,0015.11,0009.01,0008.38
2024-04-21 23:50:00,SystemResetWarning,0830.1,5.01,000.00,024.1,023.5,000.0,032.4,025.9,021.2,0001.2,0014.03,0008.98,0008.34
2024-04-21 23:51:00,SystemResetWarning,0830.0,5.01,000.00,024.1,023.5,000.0,032.4,025.9,021.0,0001.2,0013.45,0008.94,0008.30
2024-04-21 23:52:00,SystemResetWarning,0830.0,5.00,000.00,024.1,023.5,000.0,032.5,025.9,021.5,0001.2,0012.94,0008.88,0008.26
2024-04-21 23:53:00,SystemResetWarning,0830.0,4.99,000.00,024.1,023.5,000.0,032.5,025.9,021.2,0000.8,0012.92,0008.78,0008.22
2024-04-21 23:54:00,SystemResetWarning,0830.0,4.99,000.00,024.1,023.5,000.0,032.5,025.9,021.5,0000.9,0013.86,0008.73,0008.20
2024-04-21 23:55:00,SystemResetWarning,0830.0,5.00,000.00,024.1,023.5,000.0,032.5,025.9,021.6,0001.2,0013.80,0008.70,0008.17
2024-04-21 23:56:00,SystemResetWarning,0830.0,5.01,000.00,024.1,023.5,000.0,032.5,025.9,021.4,0001.3,0013.79,0008.69,0008.15
2024-04-21 23:57:00,SystemResetWarning,0830.0,5.01,000.00,024.2,023.5,000.0,032.5,026.0,020.7,0001.1,0013.80,0008.70,0008.14
2024-04-21 23:58:00,SystemResetWarning,0830.0,5.00,000.00,024.2,023.5,000.0,032.5,026.0,020.6,0001.1,0013.72,0008.72,0008.15
2024-04-21 23:59:00,SystemResetWarning,0830.0,4.99,000.00,024.2,023.6,000.0,032.5,026.0,020.6,0000.9,0013.88,0008.78,0008.18
